Content
SEND FEEDBACK

Daily
Averages
Monthly
Summary
United States of America

NEW PALTZ, NEW YORK


Home > North America > United States > New York
Elevation: 1243 feet     Latitude: 41 08N     Longitude: 074 33W

WEATHER
 
SELECT A DAY
Number of Records: 178,943;   Date Range: 1/1/95 - 11/27/14
 
SHARE

PRINT THIS DATA

[ ← Previous Day ]
WEATHER ALMANAC - MARCH 19, 2013
[ Next Day → ]
[ °C ]   °F
Weather ElementAverageHighLow
Temperature34.9 °F39 °F (5:56 pm)32 °F (1:56 am)
Dewpoint30.5 °F32 °F (9:56 am)24.1 °F (11:56 pm)
Humidity84.6 %92 % (1:56 am)64 % (11:56 pm)
Barometer29.77 in29.94 in (1:56 am)29.68 in (4:31 pm)
Wind Speed12.1 mph18.4 mph (2:56 am)
Wind Gust27.6 mph (2:56 am)
Weather ElementAverage
Visibility6.4 mi
Wind DirectionSSW (199 °)

Weather ElementTotal
Precipitation0.07 in
Heating Degree Days29.5 (Base 65)
Averaged from 29 records on March 19, 2013
WEATHER CONDITIONS BREAKOUT
WIND DIRECTION BREAKOUT
WEATHER BY HOUR - MARCH 19, 2013
[ °C ]   °F
Local TimeTemperatureDewpointHumidityBarometerVisibilityWind DirectionWind SpeedGust SpeedPrecipitationEventsConditions
1:56 AM32.0 °F30.0 °F92 %29.94 in3.0 miEast (100°)16.1 mph26.5 mph0.00 inRainLight Rain
2:56 AM33.1 °F30.0 °F89 %29.92 in3.0 miEast (90°)18.4 mph27.6 mph0.00 inRainLight Rain
3:56 AM33.1 °F30.0 °F89 %29.88 in3.0 miEast (80°)17.3 mph25.3 mph0.01 inRainLight Rain
4:56 AM33.1 °F30.9 °F92 %29.84 in6.0 miEast (80°)13.8 mph23.0 mph0.00 inRainLight Rain
5:56 AM33.1 °F30.0 °F89 %29.83 in10.0 miEast (80°)15.0 mph24.2 mph0.00 inRainLight Rain
6:56 AM33.1 °F30.9 °F92 %29.79 in6.0 miEast (80°)12.7 mph25.3 mph0.00 inOvercast
7:56 AM34.0 °F30.9 °F89 %29.81 in5.0 miENE (60°)12.7 mph19.6 mphOvercast
8:33 AM33.8 °F30.2 °F87 %29.75 in2.5 miENE (70°)13.8 mph21.9 mphOvercast
8:56 AM34.0 °F30.9 °F89 %29.77 in2.5 miENE (70°)12.7 mph18.4 mphOvercast
9:56 AM34.0 °F32.0 °F92 %29.75 in2.5 miENE (70°)10.4 mph0.00 inLight Drizzle
10:56 AM34.0 °F32.0 °F92 %29.75 in2.0 miNNE (20°)8.1 mph0.00 inLight Drizzle
11:56 AM34.0 °F30.9 °F89 %29.78 in2.0 miNW (310°)9.2 mph0.03 inRainRain
12:56 PM34.0 °F30.9 °F89 %29.76 in6.0 miNW (310°)11.5 mph0.01 inRainRain
1:56 PM36.0 °F30.9 °F82 %29.71 in10.0 miNNW (340°)15.0 mph0.00 inRainRain
2:56 PM37.0 °F30.9 °F79 %29.69 in10.0 miNNW (330°)9.2 mph0.00 inOvercast
3:43 PM35.6 °F32.0 °F87 %29.69 in2.5 miWNW (290°)13.8 mphOvercast
3:56 PM35.1 °F32.0 °F89 %29.71 in2.5 miWNW (300°)15.0 mphOvercast
4:03 PM35.6 °F32.0 °F87 %29.69 in2.5 miNW (310°)12.7 mphOvercast
4:31 PM35.6 °F32.0 °F87 %29.68 in7.0 miNW (320°)10.4 mphMostly Cloudy
4:56 PM37.9 °F32.0 °F79 %29.70 in10.0 miWNW (300°)6.9 mphPartly Cloudy
5:56 PM39.0 °F30.9 °F73 %29.71 in10.0 miWNW (300°)9.2 mphScattered Clouds
6:56 PM37.0 °F30.9 °F79 %29.73 in10.0 miCalmPartly Cloudy
7:56 PM34.0 °F30.0 °F85 %29.74 in10.0 miCalmPartly Cloudy
8:56 PM34.0 °F30.0 °F85 %29.75 in10.0 miNNW (330°)9.2 mphPartly Cloudy
9:15 PM37.4 °F30.2 °F75 %29.75 in9.0 miNW (310°)17.3 mph24.2 mphOvercast
9:37 PM35.6 °F30.2 °F81 %29.75 in10.0 miWNW (300°)11.5 mph0.01 inScattered Clouds
9:56 PM36.0 °F30.0 °F79 %29.77 in10.0 miWNW (300°)12.7 mph0.01 inScattered Clouds
10:56 PM36.0 °F28.0 °F73 %29.77 in10.0 miNW (310°)18.4 mph25.3 mphScattered Clouds
11:56 PM35.1 °F24.1 °F64 %29.79 in10.0 miNW (310°)17.3 mph26.5 mphClear
Hourly data recorded from KHPN, located miles away from New Paltz, New York







STORIES FROM OUR PARTNERS